Location: Bonn
(50.7330°N, 7.1000°E)
Time: 08:00:59
(UTC+01:00)

Iridium 67 - Visible Passes

Search period start: 31 January 2015 00:00
Search period end: 10 February 2015 00:00
Orbit: 776 x 779 km, 86.4° (Epoch: 29 January)

Date Brightness Start Highest point End Pass type
(mag) Time Alt. Az. Time Alt. Az. Time Alt. Az.
31 Jan 8.4 05:38:33 10° ESE 05:41:40 17° ENE 05:44:59 10° NE visible
31 Jan 5.5 07:16:35 10° S 07:21:49 81° W 07:27:04 10° N visible
31 Jan 7.1 19:22:07 10° NNW 19:26:53 36° W 19:31:36 10° SSW visible
01 Feb 6.1 06:43:10 10° SSE 06:48:18 61° E 06:53:28 10° N visible
01 Feb 6.1 18:48:20 10° N 18:53:29 61° W 18:58:37 10° SSW visible
02 Feb 7.1 06:10:11 10° SSE 06:14:53 36° E 06:19:41 10° NNE visible
02 Feb 5.5 18:14:43 10° N 18:19:59 81° E 18:25:13 10° S visible
02 Feb 8.4 19:56:50 10° NW 20:00:07 17° WNW 20:03:12 10° WSW visible
03 Feb 8.0 05:37:41 10° SE 05:41:35 22° E 05:45:38 10° NNE visible
03 Feb 5.6 07:16:49 10° SSW 07:21:57 59° W 07:27:08 10° N visible
03 Feb 7.7 19:22:31 10° NNW 19:26:52 27° W 19:31:08 10° SW visible
04 Feb 8.6 05:06:01 10° E 05:08:23 14° ENE 05:11:00 10° NE visible
04 Feb 5.6 06:43:09 10° S 06:48:22 84° E 06:53:38 10° N visible
04 Feb 6.8 18:48:34 10° NNW 18:53:32 44° W 18:58:26 10° SSW visible
05 Feb 6.5 06:09:55 10° SSE 06:14:54 50° E 06:19:58 10° NNE visible
05 Feb 5.8 18:14:51 10° N 18:20:05 75° W 18:25:18 10° S visible
05 Feb 8.7 19:57:56 10° NW 19:59:59 12° WNW 20:01:47 10° W visible
06 Feb 7.5 05:37:07 10° SE 05:41:33 30° E 05:46:05 10° NNE visible
06 Feb 5.9 07:17:12 10° SSW 07:22:09 43° WNW 07:27:08 10° N visible
06 Feb 8.3 19:23:01 10° NNW 19:26:49 20° WNW 19:30:28 10° WSW visible
07 Feb 8.2 05:04:52 10° ESE 05:08:17 18° ENE 05:11:52 10° NNE visible
07 Feb 5.5 06:43:17 10° S 06:48:30 72° W 06:53:45 10° N visible
07 Feb 7.5 18:48:53 10° NNW 18:53:32 33° W 18:58:06 10° SW visible
08 Feb 8.8 04:33:57 10° E 04:35:08 11° ENE 04:36:35 10° NE visible
08 Feb 5.9 06:09:48 10° S 06:14:57 68° E 06:20:11 10° N visible
08 Feb 6.4 18:15:03 10° NNW 18:20:09 54° W 18:25:13 10° SSW visible
09 Feb 6.9 05:36:43 10° SSE 05:41:32 40° E 05:46:26 10° NNE visible
09 Feb 6.2 07:17:44 10° SW 07:22:25 32° WNW 07:27:04 10° NNW visible
09 Feb 8.5 19:23:47 10° NW 19:26:43 15° WNW 19:29:27 10° WSW visible
